Powrót do katalogu

DMSP 5D-2 F13 DEB

AktywnySSO
NORAD 40600·DEBRIS·🇺🇸 United States

Wystrzelony Mar 24, 1995 z Vandenberg Space Force Base

Loading…

Następne Przeloty (najbliższe 24 godziny)

TLE

ŚwieżeSource: Space-Track

Epoka: Sep 12, 2026, 02:15 UTC

1 40600U 95015EX  26255.09426030  .00003851  00000-0  12888-2 0  9990
2 40600  98.8574 304.6372 0036556 129.8867 230.5542 14.37588357588366

Śledź DMSP 5D-2 F13 DEB w czasie rzeczywistym z AllMySat

Download on the App Store